Jamestown, ND

8:03 AM CST on November 24, 2017 (GMT -0600)
Jamestown Municipal

Weather History for KJMS - December, 2012

Change the Weather History Date:

Thursday, December 6, 2012

  Actual Average Record
Temperature  
Mean Temperature 28 °F 17 °F  
Max Temperature 40 °F 26 °F 67 °F (1939)
Min Temperature 16 °F 8 °F -26 °F (1972)
Degree Days  
Heating Degree Days 37 48  
Month to date heating degree days 208 282  
Since 1 July heating degree days 2263 2366  
Cooling Degree Days 0 0  
Month to date cooling degree days 0 0  
Year to date cooling degree days 575 446  
Moisture  
Dew Point 22 °F    
Average Humidity 72    
Maximum Humidity 85    
Minimum Humidity 59    
Precipitation  
Precipitation 0.00 in 0.02 in 0.68 in (1951)
Month to date precipitation 0.02 0.09  
Year to date precipitation 12.83 18.46  
Sea Level Pressure  
Sea Level Pressure 29.92 in    
Wind  
Wind Speed 13 mph (WNW)    
Max Wind Speed 26 mph    
Max Gust Speed 31 mph    
Visibility 10 miles    
Events      
T = Trace of Precipitation, MM = Missing Value Source: NWS Daily Summary

Daily Weather History Graph

Daily Weather History Graph

Search for Another Location

Airport or City:

Trip Planner

Search our weather history database for the weather conditions in past years. The results will help you decide how hot, cold, wet, or windy it might be!

Date:

Astronomy

Dec. 06, 2012 Rise Set
Actual Time 8:05 AM CST 4:46 PM CST
Civil Twilight 7:30 AM CST 5:21 PM CST
Nautical Twilight 6:52 AM CST 5:59 PM CST
Astronomical Twilight 6:15 AM CST 6:36 PM CST
Moon No Moon Rise 12:36 PM CST (12/6)
Length of Visible Light 9h 50m
Length of Day
8h 40m
Waning Gibbous, 49% of the Moon is Illuminated
Dec 6
Waning Gibbous
Dec 13
New
Dec 19
First Quarter
Dec 28
Full
Jan 4
Last Quarter

Hourly Weather History & Observations

Time (CST) Temp. Windchill Dew Point Humidity Pressure Visibility Wind Dir Wind Speed Gust Speed Precip Events Conditions
12:56 AM 39.9 °F 31.1 °F 27.0 °F 60% 29.72 in 10.0 mi West 17.3 mph - N/A   Mostly Cloudy
1:56 AM 37.0 °F 27.7 °F 27.0 °F 67% 29.74 in 10.0 mi West 16.1 mph - N/A   Clear
2:56 AM 37.0 °F 27.4 °F 28.9 °F 73% 29.78 in 10.0 mi WNW 17.3 mph - N/A   Mostly Cloudy
3:54 AM 35.6 °F 26.2 °F 28.4 °F 75% 29.75 in 10.0 mi NW 15.0 mph 24.2 mph N/A   Scattered Clouds
3:56 AM 36.0 °F 26.7 °F 28.9 °F 76% 29.80 in 10.0 mi NW 15.0 mph - N/A   Partly Cloudy
4:56 AM 34.0 °F 24.2 °F 28.0 °F 79% 29.83 in 10.0 mi WNW 15.0 mph - N/A   Partly Cloudy
5:56 AM 33.1 °F 21.5 °F 26.1 °F 75% 29.87 in 10.0 mi WNW 19.6 mph 26.5 mph N/A   Partly Cloudy
6:29 AM 30.2 °F 19.3 °F 24.8 °F 80% 29.83 in 10.0 mi NW 15.0 mph - N/A   Mostly Cloudy
6:56 AM 28.9 °F 18.2 °F 24.1 °F 82% 29.89 in 10.0 mi NW 13.8 mph - N/A   Mostly Cloudy
7:08 AM 28.4 °F 19.1 °F 23.0 °F 80% 29.83 in 10.0 mi NW 10.4 mph - N/A   Scattered Clouds
7:23 AM 28.4 °F 20.4 °F 24.8 °F 86% 29.84 in 10.0 mi NW 8.1 mph - N/A   Mostly Cloudy
7:56 AM 28.9 °F 19.8 °F 24.1 °F 82% 29.91 in 10.0 mi NW 10.4 mph - N/A   Mostly Cloudy
8:56 AM 27.0 °F 13.9 °F 21.0 °F 78% 29.94 in 10.0 mi NW 18.4 mph - N/A   Overcast
9:21 AM 26.6 °F 15.2 °F 19.4 °F 74% 29.90 in 10.0 mi NW 13.8 mph - N/A   Scattered Clouds
9:56 AM 27.0 °F 13.9 °F 18.0 °F 69% 29.97 in 10.0 mi WNW 18.4 mph - N/A   Clear
10:56 AM 28.0 °F 14.3 °F 18.0 °F 66% 29.97 in 10.0 mi NW 21.9 mph 29.9 mph N/A   Clear
11:56 AM 30.0 °F 17.2 °F 19.0 °F 64% 29.97 in 10.0 mi NW 20.7 mph 28.8 mph N/A   Clear
12:56 PM 30.9 °F 19.4 °F 21.0 °F 67% 29.97 in 10.0 mi NW 17.3 mph - N/A   Clear
1:44 PM 33.8 °F 23.2 °F 21.2 °F 60% 29.92 in 10.0 mi NW 17.3 mph 23.0 mph N/A   Mostly Cloudy
1:56 PM 32.0 °F 22.1 °F 21.9 °F 66% 29.97 in 10.0 mi NW 13.8 mph - N/A   Mostly Cloudy
2:39 PM 33.8 °F 24.3 °F 21.2 °F 60% 29.93 in 10.0 mi WNW 13.8 mph 21.9 mph N/A   Scattered Clouds
2:56 PM 32.0 °F 21.2 °F 21.9 °F 66% 29.98 in 10.0 mi NW 16.1 mph - N/A   Partly Cloudy
3:56 PM 30.9 °F 20.2 °F 21.0 °F 67% 29.99 in 10.0 mi WNW 15.0 mph - N/A   Clear
4:56 PM 28.0 °F 21.7 °F 19.9 °F 72% 30.01 in 10.0 mi West 5.8 mph - N/A   Clear
5:56 PM 25.0 °F 17.1 °F 19.0 °F 78% 30.02 in 10.0 mi West 6.9 mph - N/A   Clear
6:56 PM 26.1 °F 20.5 °F 19.9 °F 78% 30.01 in 10.0 mi West 4.6 mph - N/A   Clear
7:56 PM 21.9 °F 15.7 °F 17.1 °F 82% 30.02 in 10.0 mi WSW 4.6 mph - N/A   Clear
8:56 PM 19.0 °F 11.1 °F 15.1 °F 85% 30.03 in 10.0 mi SSW 5.8 mph - N/A   Clear
9:56 PM 17.1 °F - 12.9 °F 84% 30.03 in 10.0 mi Calm Calm - N/A   Clear
10:56 PM 18.0 °F 11.1 °F 14.0 °F 84% 30.03 in 10.0 mi WNW 4.6 mph - N/A   Partly Cloudy
11:56 PM 19.0 °F 12.3 °F 15.1 °F 85% 30.03 in 10.0 mi NNE 4.6 mph - N/A   Clear